Satellite: LO-19
Catalog number: 20442
Epoch time:      07360.90671197
Element set:    0138
Inclination:      098.1876 deg
RA of node:       354.0070 deg
Eccentricity:    0.0011406
Arg of perigee:   335.7972 deg
Mean anomaly:     024.2668 deg
Mean motion:   14.32019205 rev/day
Decay rate:        1.2e-07 rev/day^2
Epoch rev:           93627
Checksum:              292

Satellite: AO-16
Catalog number: 20439
Epoch time:      07360.90046522
Element set:    0213
Inclination:      098.2120 deg
RA of node:       344.9974 deg
Eccentricity:    0.0010761
Arg of perigee:   338.3759 deg
Mean anomaly:     021.6961 deg
Mean motion:   14.31780022 rev/day
Decay rate:        2.1e-07 rev/day^2
Epoch rev:           93612
Checksum:              278

/EX
SB KEPS @ AMSAT  $ORB07361.W
Orbital Elements  07361.WEATHER

HR AMSAT ORBITAL ELEMENTS FOR WEATHER SATELLITES
FROM WA5QGD FORT WORTH,TX December 27, 2007
Send Subscribe/unsubscribe to KEPS at 
http://www.amsat.org/mailman/listinfo/keps
BID: ORB07361.W
TO ALL RADIO AMATEURS BT

Satellite: NOAA-18
Catalog number: 28654
Epoch time:      07360.55133084
Element set:    0246
Inclination:      098.8512 deg
RA of node:       298.7853 deg
Eccentricity:    0.0015255
Arg of perigee:   084.6848 deg
Mean anomaly:     275.6061 deg
Mean motion:   14.11121529 rev/day
Decay rate:        2.7e-07 rev/day^2
Epoch rev:           13398
Checksum:              320

Satellite: NOAA-17
Catalog number: 27453
Epoch time:      07360.56390823
Element set:    0731
Inclination:      098.5600 deg
RA of node:       065.0403 deg
Eccentricity:    0.0010911
Arg of perigee:   252.0288 deg
Mean anomaly:     107.9711 deg
Mean motion:   14.23936977 rev/day
Decay rate:       2.65e-06 rev/day^2
Epoch rev:           28609
Checksum:              302

Satellite: NOAA-16
Catalog number: 26536
Epoch time:      07360.94015329
Element set:    0736
Inclination:      099.1405 deg
RA of node:       341.4656 deg
Eccentricity:    0.0010472
Arg of perigee:   356.3573 deg
Mean anomaly:     003.7539 deg
Mean motion:   14.12463857 rev/day
Decay rate:       1.96e-06 rev/day^2
Epoch rev:           37431
Checksum:              309

Satellite: OKEAN-0
Catalog number: 25860
Epoch time:      07360.54761834
Element set:    0246
Inclination:      097.7384 deg
RA of node:       353.8986 deg
Eccentricity:    0.0001797
Arg of perigee:   089.1739 deg
Mean anomaly:     270.9674 deg
Mean motion:   14.73492503 rev/day
Decay rate:       -1.1e-07 rev/day^2
Epoch rev:           45382
Checksum:              337

Satellite: FENGYUN1
Catalog number: 25730
Epoch time:      07360.98312368
Element set:    0342
Inclination:      098.7097 deg
RA of node:       337.7462 deg
Eccentricity:    0.0020535
Arg of perigee:   299.9754 deg
Mean anomaly:     059.9377 deg
Mean motion:   14.07656659 rev/day
Decay rate:       3.06e-06 rev/day^2
Epoch rev:           44459
Checksum:              348

Satellite: RESURS
Catalog number: 25394
Epoch time:      07360.71431392
Element set:    0824
Inclination:      098.4140 deg
RA of node:       047.3551 deg
Eccentricity:    0.0001908
Arg of perigee:   015.8480 deg
Mean anomaly:     344.2759 deg
Mean motion:   14.24151325 rev/day
Decay rate:       -2.9e-07 rev/day^2
Epoch rev:           49175
Checksum:              288

Satellite: NOAA-15
Catalog number: 25338
Epoch time:      07360.88806086
Element set:    0288
Inclination:      098.5438 deg
RA of node:       352.2627 deg
Eccentricity:    0.0010487
Arg of perigee:   182.4047 deg
Mean anomaly:     177.7074 deg
Mean motion:   14.24678538 rev/day
Decay rate:       -8.0e-08 rev/day^2
Epoch rev:           50012
Checksum:              325

Satellite: SICH-1
Catalog number: 23657
Epoch time:      07358.07628954
Element set:     258
Inclination:      082.5287 deg
RA of node:       260.3319 deg
Eccentricity:    0.0023757
Arg of perigee:   343.4083 deg
Mean anomaly:     016.6318 deg
Mean motion:   14.81537221 rev/day
Decay rate:       1.50e-06 rev/day^2
Epoch rev:           66414
Checksum:              304

Satellite: NOAA-14
Catalog number: 23455
Epoch time:      07360.58576056
Element set:    0948
Inclination:      098.9698 deg
RA of node:       067.5789 deg
Eccentricity:    0.0008585
Arg of perigee:   275.5422 deg
Mean anomaly:     084.4774 deg
Mean motion:   14.13733056 rev/day
Decay rate:       1.37e-06 rev/day^2
Epoch rev:           66982
Checksum:              366

Satellite: OKEAN-4
Catalog number: 23317
Epoch time:      07358.10743433
Element set:     459
Inclination:      082.5385 deg
RA of node:       119.3644 deg
Eccentricity:    0.0021993
Arg of perigee:   351.9501 deg
Mean anomaly:     008.1375 deg
Mean motion:   14.82562883 rev/day
Decay rate:       1.40e-06 rev/day^2
Epoch rev:           71219
Checksum:              299

Satellite: MET-2/21
Catalog number: 22782
Epoch time:      07358.12347136
Element set:      19
Inclination:      082.5478 deg
RA of node:       251.2276 deg
Eccentricity:    0.0024051
Arg of perigee:   065.1332 deg
Mean anomaly:     295.2337 deg
Mean motion:   13.83622949 rev/day
Decay rate:        4.8e-07 rev/day^2
Epoch rev:           72278
Checksum:              304

Satellite: MET-3/5
Catalog number: 21655
Epoch time:      07360.90706276
Element set:    0438
Inclination:      082.5547 deg
RA of node:       226.7781 deg
Eccentricity:    0.0014533
Arg of perigee:   085.1034 deg
Mean anomaly:     275.1748 deg
Mean motion:   13.17012990 rev/day
Decay rate:        5.1e-07 rev/day^2
Epoch rev:           78677
Checksum:              315

Satellite: NOAA-12
Catalog number: 21263
Epoch time:      07360.90427609
Element set:    0478
Inclination:      098.7618 deg
RA of node:       357.9153 deg
Eccentricity:    0.0011542
Arg of perigee:   268.5383 deg
Mean anomaly:     091.4473 deg
Mean motion:   14.25509068 rev/day
Decay rate:       -2.5e-07 rev/day^2
Epoch rev:           86370
Checksum:              320

Satellite: NOAA-11
Catalog number: 19531
Epoch time:      07360.83891606
Element set:    0973
Inclination:      098.8067 deg
RA of node:       087.5567 deg
Eccentricity:    0.0011203
Arg of perigee:   199.0181 deg
Mean anomaly:     161.0572 deg
Mean motion:   14.14859794 rev/day
Decay rate:      -1.41e-06 rev/day^2
Epoch rev:           99339
Checksum:              333

Satellite: NOAA-10
Catalog number: 16969
Epoch time:      07360.65846113
Element set:    0940
Inclination:      098.7353 deg
RA of node:       017.8605 deg
Eccentricity:    0.0012062
Arg of perigee:   330.6820 deg
Mean anomaly:     029.3684 deg
Mean motion:   14.27345887 rev/day
Decay rate:        6.7e-07 rev/day^2
Epoch rev:           10668
Checksum:              316

/EX
SB KEPS @ AMSAT  $ORB07361.M
Orbital Elements  07361.MISC

HR AMSAT ORBITAL ELEMENTS FOR MANNED AND MISCELLANEOUS SATELLITES
FROM WA5QGD FORT WORTH,TX December 27, 2007
Send Subscribe/unsubscribe to KEPS at 
http://www.amsat.org/mailman/listinfo/keps
BID: ORB07361.M
TO ALL RADIO AMATEURS BT

Satellite: CAPE1
Catalog number: 31130
Epoch time:      07360.94252742
Element set:    0197
Inclination:      098.0634 deg
RA of node:       066.5240 deg
Eccentricity:    0.0103528
Arg of perigee:   149.9484 deg
Mean anomaly:     210.7709 deg
Mean motion:   14.51916273 rev/day
Decay rate:       1.96e-06 rev/day^2
Epoch rev:           03658
Checksum:              300

Satellite: MAST
Catalog number: 31126
Epoch time:      07360.68430957
Element set:    0218
Inclination:      098.0630 deg
RA of node:       066.8667 deg
Eccentricity:    0.0095579
Arg of perigee:   149.1961 deg
Mean anomaly:     211.4888 deg
Mean motion:   14.53387390 rev/day
Decay rate:       -5.2e-07 rev/day^2
Epoch rev:           03681
Checksum:              324

Satellite: FALCON
Catalog number: 30776
Epoch time:      07360.72415758
Element set:    0212
Inclination:      035.4321 deg
RA of node:       125.3825 deg
Eccentricity:    0.0001872
Arg of perigee:   315.4872 deg
Mean anomaly:     044.5694 deg
Mean motion:   15.02834883 rev/day
Decay rate:       3.67e-06 rev/day^2
Epoch rev:           04403
Checksum:              285

Satellite: FCAL
Catalog number: 29667
Epoch time:      07357.95822928
Element set:     608
Inclination:      051.6309 deg
RA of node:       173.4389 deg
Eccentricity:    0.0009105
Arg of perigee:   017.2597 deg
Mean anomaly:     342.8716 deg
Mean motion:   15.97331535 rev/day
Decay rate:     3.0581e-04 rev/day^2
Epoch rev:            5823
Checksum:              331

Satellite: NCUBE2
Catalog number: 28897
Epoch time:      07360.67240582
Element set:    0436
Inclination:      098.1134 deg
RA of node:       253.4950 deg
Eccentricity:    0.0016455
Arg of perigee:   231.3909 deg
Mean anomaly:     128.5821 deg
Mean motion:   14.59786380 rev/day
Decay rate:       1.57e-06 rev/day^2
Epoch rev:           10745
Checksum:              318

Satellite: CO-58
Catalog number: 28895
Epoch time:      07360.68782746
Element set:    0908
Inclination:      098.1167 deg
RA of node:       253.5698 deg
Eccentricity:    0.0017076
Arg of perigee:   229.7414 deg
Mean anomaly:     130.2311 deg
Mean motion:   14.59619079 rev/day
Decay rate:       1.39e-06 rev/day^2
Epoch rev:           11517
Checksum:              346

Satellite: UWE-1
Catalog number: 28892
Epoch time:      07360.71497986
Element set:    0933
Inclination:      098.1143 deg
RA of node:       253.3095 deg
Eccentricity:    0.0016513
Arg of perigee:   229.6188 deg
Mean anomaly:     130.3578 deg
Mean motion:   14.59576420 rev/day
Decay rate:       1.05e-06 rev/day^2
Epoch rev:           11529
Checksum:              321

